WAT4615 KMDW-CYTZ

Flight info

Callsign WAT4615
Flight time N/A
Altitude 25000
Route LEWKE DCT GIJ DCT EVOTE DCT NELLS DCT GGUCE DCT KEDBU DCT LINNG
Aircraft PC12/L-SDFGRWY/S

Departure

Time N/A
Airport Chicago Midway International Airport (KMDW)

Arrival

Time 2026-04-22 19:42
Airport Billy Bishop Toronto City Airport (CYTZ)
Time Latitude Longitude Altitude Speed Heading
2026-04-22 19:14 42.61996 -81.19765 25049 ft 289 kts 60°
2026-04-22 19:14 42.62721 -81.17218 25052 ft 289 kts 60°
2026-04-22 19:14 42.63447 -81.14667 25045 ft 289 kts 60°
2026-04-22 19:15 42.63926 -81.12982 25050 ft 289 kts 60°
2026-04-22 19:15 42.64894 -81.09572 25050 ft 289 kts 60°
2026-04-22 19:15 42.65436 -81.07662 25053 ft 289 kts 60°
2026-04-22 19:15 42.65591 -81.07114 25053 ft 289 kts 60°
2026-04-22 19:16 42.66314 -81.04565 25049 ft 289 kts 60°
2026-04-22 19:16 42.67035 -81.02018 25052 ft 289 kts 60°
2026-04-22 19:16 42.67756 -80.99466 25045 ft 289 kts 60°
2026-04-22 19:16 42.68476 -80.96916 25043 ft 289 kts 60°
2026-04-22 19:17 42.69194 -80.94369 25040 ft 289 kts 60°
2026-04-22 19:17 42.69914 -80.91818 25041 ft 289 kts 60°
2026-04-22 19:17 42.70633 -80.89266 25045 ft 289 kts 59°
2026-04-22 19:17 42.71390 -80.86741 25045 ft 289 kts 58°
2026-04-22 19:18 42.72150 -80.84215 25042 ft 289 kts 58°
2026-04-22 19:18 42.72905 -80.81681 25043 ft 289 kts 58°
2026-04-22 19:18 42.73661 -80.79154 25040 ft 289 kts 58°
2026-04-22 19:18 42.74420 -80.76623 25040 ft 289 kts 58°
2026-04-22 19:19 42.75176 -80.74095 25033 ft 289 kts 59°
2026-04-22 19:19 42.75933 -80.71560 25033 ft 289 kts 59°
2026-04-22 19:19 42.76688 -80.69030 25033 ft 289 kts 59°
2026-04-22 19:19 42.77445 -80.66494 25032 ft 289 kts 59°
2026-04-22 19:20 42.78199 -80.63961 25032 ft 289 kts 59°
2026-04-22 19:20 42.78951 -80.61431 25033 ft 289 kts 59°
2026-04-22 19:20 42.79705 -80.58896 25030 ft 289 kts 59°
2026-04-22 19:20 42.80457 -80.56362 25022 ft 289 kts 59°
2026-04-22 19:21 42.81209 -80.53826 25022 ft 289 kts 59°
2026-04-22 19:21 42.81967 -80.51275 24874 ft 294 kts 58°
2026-04-22 19:21 42.82735 -80.48687 24519 ft 294 kts 59°
2026-04-22 19:21 42.83487 -80.46122 24146 ft 289 kts 59°
2026-04-22 19:22 42.84232 -80.43597 23762 ft 286 kts 59°
2026-04-22 19:22 42.84966 -80.41122 23358 ft 286 kts 59°
2026-04-22 19:22 42.85711 -80.38604 22970 ft 288 kts 59°
2026-04-22 19:22 42.86463 -80.36053 22577 ft 291 kts 60°
2026-04-22 19:23 42.87216 -80.33489 22196 ft 292 kts 60°
2026-04-22 19:23 42.87973 -80.30911 21807 ft 293 kts 60°
2026-04-22 19:23 42.88733 -80.28324 21420 ft 295 kts 60°
2026-04-22 19:23 42.89497 -80.25721 21030 ft 296 kts 60°
2026-04-22 19:24 42.90263 -80.23110 20638 ft 297 kts 60°
2026-04-22 19:24 42.91030 -80.20490 20247 ft 298 kts 61°
2026-04-22 19:24 42.91800 -80.17858 19855 ft 300 kts 61°
2026-04-22 19:24 42.92573 -80.15212 19457 ft 301 kts 61°
2026-04-22 19:25 42.93351 -80.12546 19056 ft 303 kts 62°
2026-04-22 19:25 42.94131 -80.09872 18658 ft 304 kts 62°
2026-04-22 19:25 42.94914 -80.07186 18249 ft 305 kts 62°
2026-04-22 19:25 42.95697 -80.04492 17816 ft 305 kts 62°
2026-04-22 19:26 42.96481 -80.01794 17410 ft 306 kts 62°
2026-04-22 19:26 42.97267 -79.99088 16998 ft 307 kts 63°
2026-04-22 19:26 42.98053 -79.96376 16600 ft 308 kts 63°
2026-04-22 19:26 42.98841 -79.93655 16197 ft 308 kts 62°
2026-04-22 19:27 42.99627 -79.90939 15789 ft 308 kts 62°
2026-04-22 19:27 43.00412 -79.88225 15382 ft 306 kts 63°
2026-04-22 19:27 43.01192 -79.85524 14977 ft 305 kts 63°
2026-04-22 19:27 43.01967 -79.82832 14576 ft 303 kts 63°
2026-04-22 19:28 43.02739 -79.80158 14177 ft 302 kts 63°
2026-04-22 19:28 43.03506 -79.77494 13778 ft 301 kts 63°
2026-04-22 19:28 43.04300 -79.74866 13348 ft 295 kts 58°
2026-04-22 19:28 43.05450 -79.72617 12960 ft 285 kts 43°
2026-04-22 19:29 43.06792 -79.70643 12587 ft 282 kts 41°
2026-04-22 19:29 43.08103 -79.68704 12229 ft 281 kts 41°
2026-04-22 19:29 43.09419 -79.66732 11858 ft 280 kts 41°
2026-04-22 19:29 43.10727 -79.64776 11490 ft 278 kts 41°
2026-04-22 19:30 43.11609 -79.63464 11238 ft 276 kts 41°
2026-04-22 19:30 43.13321 -79.60912 10761 ft 274 kts 41°
2026-04-22 19:30 43.14605 -79.58994 10401 ft 272 kts 41°
2026-04-22 19:30 43.15880 -79.57087 10061 ft 271 kts 41°
2026-04-22 19:31 43.17150 -79.55188 9671 ft 270 kts 42°
2026-04-22 19:31 43.18413 -79.53294 9306 ft 268 kts 42°
2026-04-22 19:31 43.19668 -79.51415 8951 ft 266 kts 42°
2026-04-22 19:31 43.20916 -79.49545 8601 ft 265 kts 42°
2026-04-22 19:32 43.22162 -79.47681 8245 ft 265 kts 42°
2026-04-22 19:32 43.23398 -79.45824 7905 ft 263 kts 42°
2026-04-22 19:32 43.24632 -79.43970 7554 ft 262 kts 43°
2026-04-22 19:32 43.25864 -79.42122 7210 ft 262 kts 43°
2026-04-22 19:33 43.27090 -79.40276 6868 ft 261 kts 43°
2026-04-22 19:33 43.28314 -79.38430 6508 ft 261 kts 43°
2026-04-22 19:33 43.29737 -79.36999 6125 ft 251 kts 17°
2026-04-22 19:33 43.31397 -79.36461 5827 ft 239 kts 359°
2026-04-22 19:34 43.32970 -79.36680 5594 ft 221 kts 341°
2026-04-22 19:34 43.34406 -79.37347 5386 ft 216 kts 336°
2026-04-22 19:34 43.35819 -79.38004 5162 ft 214 kts 337°
2026-04-22 19:34 43.37230 -79.38645 4942 ft 213 kts 338°
2026-04-22 19:35 43.38634 -79.39283 4722 ft 208 kts 337°
2026-04-22 19:35 43.39949 -79.39879 4514 ft 190 kts 337°
2026-04-22 19:35 43.40752 -79.40243 4392 ft 177 kts 337°
2026-04-22 19:35 43.42212 -79.40908 4156 ft 156 kts 336°
2026-04-22 19:36 43.43205 -79.41366 4007 ft 151 kts 336°
2026-04-22 19:36 43.44198 -79.41822 3858 ft 150 kts 336°
2026-04-22 19:36 43.45186 -79.42274 3708 ft 150 kts 337°
2026-04-22 19:36 43.46174 -79.42727 3554 ft 150 kts 336°
2026-04-22 19:37 43.47178 -79.43187 3404 ft 152 kts 337°
2026-04-22 19:37 43.48166 -79.43634 3249 ft 150 kts 337°
2026-04-22 19:37 43.49163 -79.44091 3092 ft 151 kts 338°
2026-04-22 19:37 43.50161 -79.44547 2941 ft 153 kts 337°
2026-04-22 19:38 43.50827 -79.44857 2837 ft 152 kts 338°
2026-04-22 19:38 43.51833 -79.45320 2680 ft 151 kts 338°
2026-04-22 19:38 43.52830 -79.45775 2526 ft 153 kts 339°
2026-04-22 19:38 43.53844 -79.46236 2368 ft 151 kts 339°
2026-04-22 19:39 43.54834 -79.46687 2205 ft 150 kts 340°
2026-04-22 19:39 43.55826 -79.47148 2066 ft 157 kts 340°
2026-04-22 19:39 43.56940 -79.47386 2010 ft 161 kts 358°
2026-04-22 19:39 43.58026 -79.47443 2010 ft 154 kts 355°
2026-04-22 19:40 43.59103 -79.47528 2006 ft 155 kts 356°
2026-04-22 19:40 43.60156 -79.47553 1972 ft 153 kts 12°
2026-04-22 19:40 43.61082 -79.46826 1548 ft 148 kts 44°
2026-04-22 19:40 43.61635 -79.45598 1138 ft 153 kts 70°
2026-04-22 19:41 43.61886 -79.44173 1032 ft 159 kts 83°
2026-04-22 19:41 43.62122 -79.42861 854 ft 121 kts 69°
2026-04-22 19:41 43.62360 -79.41883 656 ft 98 kts 72°
2026-04-22 19:41 43.62595 -79.40982 480 ft 103 kts 70°
2026-04-22 19:42 43.62805 -79.40093 258 ft 91 kts 71°
2026-04-22 19:42 43.62955 -79.39481 263 ft 37 kts 71°
2026-04-22 19:42 43.63022 -79.39231 262 ft 8 kts 37°
2026-04-22 19:42 43.63092 -79.39272 257 ft 25 kts 323°
2026-04-22 19:43 43.63248 -79.39401 256 ft 0 kts 317°